Powrót do katalogu

FENGYUN 1C DEB

AktywnyPO
NORAD 30946·DEBRIS·🇨🇳 China

Wystrzelony May 10, 1999 z Taiyuan Satellite Launch Center

Loading…

Następne Przeloty (najbliższe 24 godziny)

TLE

ŚwieżeSource: Space-Track

Epoka: Sep 14, 2026, 08:21 UTC

1 30946U 99025BAL 26257.34793135  .00001293  00000-0  33589-3 0  9990
2 30946  99.0700  37.3275 0088496  90.0170 300.8608 14.49293682 23264

Śledź FENGYUN 1C DEB w czasie rzeczywistym z AllMySat

Download on the App Store